Flag for Saint Pierre and Miquelon Weather past 2 weeks in Saint-Pierre, Saint Pierre and Miquelon

Now
63 °F

Fog.


Feels Like: 63 °F
Forecast: 61 / 65 °F
Wind: 13 mph from Southwest

Location: Saint-Pierre

Current Time: Sep 3, 2015 at 5:36:56 PM

Latest Report: Sep 3, 2015 at 5:00 PM


Visibility: 0 mi

Pressure: 29.68 "Hg

Humidity: 94%

Dew point: 61 °F

Location of Saint-PierreLocation

Historic Weather in Saint-Pierre — Graph

°F

Saint-Pierre temperature yesterday

Maximum temperature yesterday: 64 °F (at 4:00 PM)
Minimum temperature yesterday: 52 °F (at 6:00 AM)
Average temperature yesterday: 59 °F

Past Weeks' High & Low Weather Summary

 TemperatureHumidityPressure
High72 °F (Aug 29, 4:00 PM)100% (Aug 19, 4:00 PM)30.36 "Hg (Aug 19, 4:00 PM)
Low52 °F (Sep 2, 6:00 AM)52% (Sep 2, 3:00 PM)29.47 "Hg (Sep 1, 8:00 AM)
Average63 °F91%30.00 "Hg
* Reported Aug 19 4:00 PM — Sep 3 4:00 PM, Saint-Pierre, Weather by CustomWeather, © 2015

Note: Actual official high and low records may vary slightly from our data, if they occured in-between our weather recording intervals... More about our weather records

Advertising

Saint-Pierre weather history for previous 24 hours

 ConditionsComfort  
Time TempWeatherWind HumidityBarometerVisibility
4:00 PM
Thu, Sep 3
63 °FFog.13 mph94%29.68 "Hg1 mi
3:00 PM64 °FFog.9 mph94%29.68 "Hg1 mi
2:00 PM64 °FFog.12 mph94%29.71 "Hg1 mi
1:00 PM64 °FFog.13 mph94%29.71 "Hg1 mi
12:00 PM63 °FFog.10 mph100%29.71 "Hg1 mi
11:00 AM63 °FDrizzle. Fog.8 mph94%29.71 "Hg1 mi
10:00 AM61 °FFog.10 mph100%29.71 "Hg0 mi
9:00 AM61 °FFog.12 mph94%29.71 "Hg1 mi
8:00 AM61 °FLow clouds.10 mph94%29.71 "HgN/A
7:00 AM61 °FLow clouds.9 mph94%29.71 "HgN/A
6:00 AM61 °FPassing clouds.5 mph94%29.71 "HgN/A
10:00 PM
Wed, Sep 2
57 °FClear.10 mph88%29.77 "Hg10 mi
9:00 PM57 °FPassing clouds.8 mph82%29.77 "HgN/A
8:00 PM59 °FSunny.12 mph77%29.77 "Hg10 mi
7:00 PM61 °FSunny.15 mph72%29.77 "Hg10 mi
6:00 PM63 °FSunny.13 mph64%29.77 "Hg10 mi
5:00 PM64 °FSunny.12 mph52%29.77 "Hg10 mi
Weather by CustomWeather, © 2015

See weather overviewHow to use our weather pages